| time (UTC) | temp C | wind direction | speed KPH | gust KPH | rain 1hr cm | rain 24hr cm | rain mn cm | humidity % | barometer mb |
| 20260505153003 | 15 | 56 | 6.4 | 12.9 | 0.00 | 0.00 | 0.00 | 54 | 1012.7 |
| 20260505152503 | 15 | 55 | 6.4 | 12.9 | 0.00 | 0.00 | 0.00 | 52 | 1012.6 |
| 20260505152003 | 15 | 49 | 4.8 | 12.9 | 0.00 | 0.00 | 0.00 | 53 | 1012.6 |
| 20260505151503 | 15 | 46 | 4.8 | 12.9 | 0.00 | 0.00 | 0.00 | 53 | 1012.5 |
| 20260505151003 | 15 | 50 | 4.8 | 11.3 | 0.00 | 0.00 | 0.00 | 54 | 1012.5 |
| 20260505150503 | 15 | 51 | 3.2 | 11.3 | 0.00 | 0.00 | 0.00 | 55 | 1012.5 |
| 20260505125003 | 7 | 0 | 0.0 | 1.6 | 0.00 | 0.00 | 0.00 | 74 | 1011.6 |
| 20260505124503 | 7 | 0 | 0.0 | 1.6 | 0.00 | 0.00 | 0.00 | 74 | 1011.6 |
| 20260505124003 | 8 | 0 | 0.0 | 3.2 | 0.00 | 0.00 | 0.00 | 73 | 1011.5 |
| 20260505123503 | 8 | 102 | 0.0 | 3.2 | 0.00 | 0.00 | 0.00 | 72 | 1011.5 |
| 20260505123003 | 8 | 101 | 1.6 | 3.2 | 0.00 | 0.00 | 0.00 | 71 | 1011.3 |
| 20260505122503 | 8 | 88 | 1.6 | 4.8 | 0.00 | 0.00 | 0.00 | 70 | 1011.3 |
| 20260505122003 | 9 | 86 | 0.0 | 4.8 | 0.00 | 0.00 | 0.00 | 69 | 1011.3 |
| 20260505121503 | 9 | 0 | 0.0 | 4.8 | 0.00 | 0.00 | 0.00 | 69 | 1011.2 |
| 20260505121003 | 8 | 0 | 0.0 | 3.2 | 0.00 | 0.00 | 0.00 | 71 | 1011.2 |
| 20260505120503 | 8 | 0 | 0.0 | 3.2 | 0.00 | 0.00 | 0.00 | 71 | 1011.1 |
| 20260505120004 | 8 | 0 | 0.0 | 4.8 | 0.00 | 0.00 | 0.00 | 73 | 1011.1 |
| 20260505115503 | 8 | 0 | 0.0 | 4.8 | 0.00 | 0.00 | 0.00 | 74 | 1011.1 |
| 20260505115003 | 7 | 0 | 0.0 | 3.2 | 0.00 | 0.00 | 0.00 | 75 | 1011.1 |
| 20260505114718 | 7 | 0 | 0.0 | 3.2 | 0.00 | 0.00 | 0.00 | 75 | 1011.2 |
| 20260505114003 | 7 | 0 | 0.0 | 3.2 | 0.00 | 0.00 | 0.00 | 76 | 1011.1 |
| 20260505113503 | 8 | 0 | 0.0 | 3.2 | 0.00 | 0.00 | 0.00 | 75 | 1011.0 |
| 20260505113003 | 8 | 0 | 0.0 | 3.2 | 0.00 | 0.00 | 0.00 | 74 | 1011.1 |
| 20260505112503 | 8 | 105 | 0.0 | 4.8 | 0.00 | 0.00 | 0.00 | 73 | 1011.1 |
| 20260505112003 | 8 | 107 | 1.6 | 4.8 | 0.00 | 0.00 | 0.00 | 72 | 1011.0 |
| 20260505111503 | 9 | 120 | 1.6 | 6.4 | 0.00 | 0.00 | 0.00 | 72 | 1011.0 |
| 20260505111003 | 8 | 113 | 0.0 | 6.4 | 0.00 | 0.00 | 0.00 | 72 | 1010.9 |
| 20260505110717 | 8 | 0 | 0.0 | 4.8 | 0.00 | 0.00 | 0.00 | 73 | 1010.9 |
| 20260505102003 | 7 | 0 | 0.0 | 4.8 | 0.00 | 0.00 | 0.00 | 80 | 1010.5 |
| 20260505101503 | 7 | 0 | 0.0 | 3.2 | 0.00 | 0.00 | 0.00 | 80 | 1010.5 |
| 20260505101003 | 7 | 0 | 0.0 | 1.6 | 0.00 | 0.00 | 0.00 | 78 | 1010.5 |
| 20260505100503 | 8 | 0 | 0.0 | 3.2 | 0.00 | 0.00 | 0.00 | 78 | 1010.5 |
| 20260505100003 | 8 | 0 | 0.0 | 3.2 | 0.00 | 0.00 | 0.00 | 79 | 1010.5 |
| 20260505095503 | 7 | 0 | 0.0 | 1.6 | 0.00 | 0.00 | 0.00 | 81 | 1010.5 |
| 20260505095003 | 7 | 0 | 0.0 | 0.0 | 0.00 | 0.00 | 0.00 | 80 | 1010.4 |
| 20260505094717 | 7 | 0 | 0.0 | 0.0 | 0.00 | 0.00 | 0.00 | 80 | 1010.4 |
| 20260505094003 | 7 | 0 | 0.0 | 0.0 | 0.00 | 0.00 | 0.00 | 79 | 1010.3 |
| 20260505093717 | 7 | 0 | 0.0 | 0.0 | 0.00 | 0.00 | 0.00 | 78 | 1010.3 |
| 20260505093003 | 8 | 0 | 0.0 | 1.6 | 0.00 | 0.00 | 0.00 | 77 | 1010.3 |
| 20260505092503 | 8 | 0 | 0.0 | 1.6 | 0.00 | 0.00 | 0.00 | 76 | 1010.3 |
| 20260505092003 | 8 | 0 | 0.0 | 1.6 | 0.00 | 0.00 | 0.00 | 76 | 1010.3 |
| 20260505091503 | 8 | 0 | 0.0 | 1.6 | 0.00 | 0.00 | 0.00 | 78 | 1010.3 |
| 20260505091003 | 8 | 0 | 0.0 | 1.6 | 0.00 | 0.00 | 0.00 | 79 | 1010.3 |
| 20260505090503 | 8 | 0 | 0.0 | 0.0 | 0.00 | 0.00 | 0.00 | 78 | 1010.3 |
| 20260505090003 | 8 | 0 | 0.0 | 0.0 | 0.00 | 0.00 | 0.00 | 78 | 1010.2 |
| 20260505085503 | 8 | 0 | 0.0 | 1.6 | 0.00 | 0.00 | 0.00 | 78 | 1010.3 |
| 20260505085003 | 8 | 0 | 0.0 | 1.6 | 0.00 | 0.00 | 0.00 | 78 | 1010.2 |
| 20260505084716 | 8 | 0 | 0.0 | 0.0 | 0.00 | 0.00 | 0.00 | 77 | 1010.2 |
| 20260505084003 | 8 | 0 | 0.0 | 0.0 | 0.00 | 0.00 | 0.00 | 76 | 1010.3 |
| 20260505083503 | 8 | 0 | 0.0 | 4.8 | 0.00 | 0.00 | 0.00 | 75 | 1010.1 |
| 20260505083003 | 9 | 0 | 0.0 | 4.8 | 0.00 | 0.00 | 0.00 | 74 | 1010.1 |
| 20260505082503 | 9 | 0 | 0.0 | 1.6 | 0.00 | 0.00 | 0.00 | 75 | 1010.1 |
| 20260505082003 | 9 | 0 | 0.0 | 0.0 | 0.00 | 0.00 | 0.00 | 75 | 1010.1 |
| 20260505081718 | 9 | 0 | 0.0 | 0.0 | 0.00 | 0.00 | 0.00 | 75 | 1010.1 |
| 20260505081003 | 9 | 0 | 0.0 | 1.6 | 0.00 | 0.00 | 0.00 | 74 | 1010.1 |
| 20260505080503 | 10 | 0 | 0.0 | 1.6 | 0.00 | 0.00 | 0.00 | 73 | 1010.1 |
| 20260505080003 | 10 | 0 | 0.0 | 3.2 | 0.00 | 0.00 | 0.00 | 71 | 1010.1 |
| 20260505075503 | 10 | 0 | 0.0 | 3.2 | 0.00 | 0.00 | 0.00 | 71 | 1010.0 |
| 20260505075003 | 10 | 0 | 0.0 | 1.6 | 0.00 | 0.00 | 0.00 | 73 | 1010.1 |
| 20260505074503 | 9 | 0 | 0.0 | 1.6 | 0.00 | 0.00 | 0.00 | 74 | 1010.0 |
| 20260505074003 | 9 | 0 | 0.0 | 1.6 | 0.00 | 0.00 | 0.00 | 74 | 1010.0 |
| 20260505073503 | 9 | 0 | 0.0 | 1.6 | 0.00 | 0.00 | 0.00 | 73 | 1009.9 |
| 20260505073003 | 10 | 0 | 0.0 | 1.6 | 0.00 | 0.00 | 0.00 | 72 | 1010.0 |
| 20260505072503 | 10 | 0 | 0.0 | 1.6 | 0.00 | 0.00 | 0.00 | 71 | 1009.9 |
| 20260505072003 | 10 | 0 | 0.0 | 1.6 | 0.00 | 0.00 | 0.00 | 70 | 1009.9 |
| 20260505071503 | 11 | 0 | 0.0 | 1.6 | 0.00 | 0.00 | 0.00 | 68 | 1009.9 |
| 20260505071217 | 11 | 0 | 0.0 | 1.6 | 0.00 | 0.00 | 0.00 | 68 | 1009.8 |
| 20260505070503 | 11 | 111 | 0.0 | 4.8 | 0.00 | 0.00 | 0.00 | 67 | 1009.8 |
| 20260505070009 | 11 | 110 | 0.0 | 4.8 | 0.00 | 0.00 | 0.00 | 66 | 1009.8 |
| 20260505065718 | 11 | 0 | 0.0 | 4.8 | 0.00 | 0.00 | 0.00 | 66 | 1009.7 |
| 20260505065003 | 11 | 0 | 0.0 | 1.6 | 0.00 | 0.00 | 0.00 | 66 | 1009.6 |
| 20260505064503 | 12 | 0 | 0.0 | 1.6 | 0.00 | 0.00 | 0.00 | 65 | 1009.6 |
| 20260505064003 | 12 | 0 | 0.0 | 3.2 | 0.00 | 0.00 | 0.00 | 63 | 1009.5 |
| 20260505063503 | 12 | 0 | 0.0 | 3.2 | 0.00 | 0.00 | 0.00 | 62 | 1009.6 |
| 20260505063217 | 12 | 0 | 0.0 | 4.8 | 0.00 | 0.00 | 0.00 | 62 | 1009.5 |
| 20260505062503 | 12 | 0 | 0.0 | 4.8 | 0.00 | 0.00 | 0.00 | 63 | 1009.5 |
| 20260505062003 | 12 | 0 | 0.0 | 3.2 | 0.00 | 0.00 | 0.00 | 65 | 1009.4 |
| 20260505061503 | 11 | 0 | 0.0 | 1.6 | 0.00 | 0.00 | 0.00 | 67 | 1009.4 |
| 20260505061003 | 11 | 0 | 0.0 | 1.6 | 0.00 | 0.00 | 0.00 | 68 | 1009.4 |
| 20260505060503 | 11 | 0 | 0.0 | 1.6 | 0.00 | 0.00 | 0.00 | 68 | 1009.4 |
| 20260505060216 | 11 | 0 | 0.0 | 1.6 | 0.00 | 0.00 | 0.00 | 67 | 1009.4 |
| 20260505055503 | 11 | 0 | 0.0 | 1.6 | 0.00 | 0.00 | 0.00 | 65 | 1009.4 |
| 20260505055003 | 12 | 0 | 0.0 | 1.6 | 0.00 | 0.00 | 0.00 | 64 | 1009.4 |
| 20260505054503 | 12 | 0 | 0.0 | 1.6 | 0.00 | 0.00 | 0.00 | 63 | 1009.3 |
| 20260505054003 | 12 | 0 | 0.0 | 4.8 | 0.00 | 0.00 | 0.00 | 62 | 1009.3 |
| 20260505053503 | 12 | 0 | 0.0 | 4.8 | 0.00 | 0.00 | 0.00 | 63 | 1009.3 |
| 20260505053003 | 11 | 0 | 0.0 | 3.2 | 0.00 | 0.00 | 0.00 | 67 | 1009.2 |
| 20260505052503 | 10 | 0 | 0.0 | 1.6 | 0.00 | 0.00 | 0.00 | 70 | 1009.2 |
| 20260505052003 | 10 | 0 | 0.0 | 1.6 | 0.00 | 0.00 | 0.00 | 72 | 1009.2 |
| 20260505051503 | 10 | 0 | 0.0 | 1.6 | 0.00 | 0.00 | 0.00 | 73 | 1009.2 |
| 20260505051218 | 10 | 0 | 0.0 | 3.2 | 0.00 | 0.00 | 0.00 | 73 | 1009.2 |
| 20260505050503 | 10 | 144 | 0.0 | 4.8 | 0.00 | 0.00 | 0.00 | 71 | 1009.1 |
| 20260505041503 | 12 | 0 | 0.0 | 6.4 | 0.00 | 0.00 | 0.00 | 66 | 1008.9 |
| 20260505041218 | 12 | 0 | 0.0 | 0.0 | 0.00 | 0.00 | 0.00 | 65 | 1008.7 |
| 20260505040503 | 12 | 0 | 0.0 | 3.2 | 0.00 | 0.00 | 0.00 | 64 | 1008.7 |
| 20260505040004 | 12 | 0 | 0.0 | 3.2 | 0.00 | 0.00 | 0.00 | 63 | 1008.6 |
| 20260505035503 | 13 | 0 | 0.0 | 0.0 | 0.00 | 0.00 | 0.00 | 61 | 1008.6 |
| 20260505035003 | 13 | 0 | 0.0 | 0.0 | 0.00 | 0.00 | 0.00 | 61 | 1008.5 |
| 20260505034503 | 13 | 0 | 0.0 | 1.6 | 0.00 | 0.00 | 0.00 | 59 | 1008.5 |
| 20260505034003 | 15 | 0 | 0.0 | 1.6 | 0.00 | 0.00 | 0.00 | 56 | 1008.4 |
| 20260505033503 | 15 | 0 | 0.0 | 1.6 | 0.00 | 0.00 | 0.00 | 53 | 1008.3 |
| 20260505033218 | 16 | 0 | 0.0 | 1.6 | 0.00 | 0.00 | 0.00 | 52 | 1008.3 |
| 20260505032503 | 17 | 0 | 0.0 | 1.6 | 0.00 | 0.00 | 0.00 | 49 | 1008.2 |
| 20260505032003 | 17 | 342 | 0.0 | 3.2 | 0.00 | 0.00 | 0.00 | 47 | 1008.2 |
| 20260505031503 | 17 | 342 | 0.0 | 3.2 | 0.00 | 0.00 | 0.00 | 47 | 1008.1 |
| 20260505031003 | 18 | 342 | 0.0 | 3.2 | 0.00 | 0.00 | 0.00 | 46 | 1008.1 |
| 20260505030503 | 18 | 344 | 0.0 | 4.8 | 0.00 | 0.00 | 0.00 | 46 | 1008.0 |
| 20260505030003 | 18 | 345 | 1.6 | 4.8 | 0.00 | 0.00 | 0.00 | 46 | 1008.0 |
| 20260505025503 | 18 | 338 | 1.6 | 4.8 | 0.00 | 0.00 | 0.00 | 45 | 1008.0 |
| 20260505025217 | 18 | 334 | 3.2 | 4.8 | 0.00 | 0.00 | 0.00 | 44 | 1007.9 |
| 20260505024503 | 19 | 339 | 3.2 | 6.4 | 0.00 | 0.00 | 0.00 | 42 | 1007.9 |
| 20260505024003 | 20 | 347 | 3.2 | 11.3 | 0.00 | 0.00 | 0.00 | 42 | 1007.8 |
| 20260505023503 | 20 | 346 | 4.8 | 11.3 | 0.00 | 0.00 | 0.00 | 39 | 1007.8 |
| 20260505023003 | 21 | 343 | 4.8 | 9.7 | 0.00 | 0.00 | 0.00 | 39 | 1007.8 |
| 20260505022503 | 21 | 344 | 3.2 | 11.3 | 0.00 | 0.00 | 0.00 | 39 | 1007.8 |
| 20260505022003 | 21 | 346 | 3.2 | 11.3 | 0.00 | 0.00 | 0.00 | 38 | 1007.7 |
| 20260505021503 | 22 | 348 | 3.2 | 8.0 | 0.00 | 0.00 | 0.00 | 37 | 1007.8 |
| 20260505021003 | 22 | 349 | 3.2 | 8.0 | 0.00 | 0.00 | 0.00 | 36 | 1007.8 |
| 20260505020503 | 22 | 348 | 3.2 | 11.3 | 0.00 | 0.00 | 0.00 | 35 | 1007.8 |
| 20260505020003 | 22 | 347 | 3.2 | 11.3 | 0.00 | 0.00 | 0.00 | 34 | 1007.7 |
| 20260505015503 | 22 | 347 | 3.2 | 9.7 | 0.00 | 0.00 | 0.00 | 34 | 1007.7 |
| 20260505015217 | 23 | 347 | 3.2 | 11.3 | 0.00 | 0.00 | 0.00 | 34 | 1007.6 |
| 20260505014718 | 23 | 341 | 3.2 | 14.5 | 0.00 | 0.00 | 0.00 | 33 | 1007.6 |
| 20260505014003 | 23 | 339 | 3.2 | 11.3 | 0.00 | 0.00 | 0.00 | 32 | 1007.5 |
| 20260505013503 | 23 | 344 | 3.2 | 11.3 | 0.00 | 0.00 | 0.00 | 32 | 1007.6 |
| 20260505013003 | 23 | 349 | 4.8 | 11.3 | 0.00 | 0.00 | 0.00 | 32 | 1007.7 |
| 20260505012503 | 23 | 348 | 4.8 | 11.3 | 0.00 | 0.00 | 0.00 | 31 | 1007.7 |
| 20260505012003 | 23 | 349 | 6.4 | 9.7 | 0.00 | 0.00 | 0.00 | 30 | 1007.7 |
| 20260505011503 | 23 | 348 | 6.4 | 14.5 | 0.00 | 0.00 | 0.00 | 31 | 1007.8 |
| 20260505011003 | 23 | 343 | 6.4 | 16.1 | 0.00 | 0.00 | 0.00 | 33 | 1007.8 |
| 20260505010503 | 23 | 347 | 4.8 | 16.1 | 0.00 | 0.00 | 0.00 | 32 | 1007.8 |
| 20260505010004 | 23 | 351 | 4.8 | 14.5 | 0.00 | 0.00 | 0.00 | 35 | 1007.9 |
| 20260505005503 | 23 | 346 | 4.8 | 12.9 | 0.00 | 0.00 | 0.00 | 34 | 1007.9 |
| 20260505005004 | 23 | 342 | 4.8 | 16.1 | 0.00 | 0.00 | 0.00 | 33 | 1007.9 |
| 20260505004503 | 23 | 343 | 4.8 | 16.1 | 0.00 | 0.00 | 0.00 | 34 | 1007.9 |
| 20260505004003 | 23 | 344 | 4.8 | 16.1 | 0.00 | 0.00 | 0.00 | 33 | 1007.9 |
| 20260505003503 | 23 | 346 | 4.8 | 16.1 | 0.00 | 0.00 | 0.00 | 35 | 1008.0 |
| 20260505003216 | 23 | 349 | 4.8 | 16.1 | 0.00 | 0.00 | 0.00 | 34 | 1008.0 |
| 20260505002503 | 23 | 347 | 6.4 | 14.5 | 0.00 | 0.00 | 0.00 | 36 | 1008.0 |
| 20260505002003 | 23 | 347 | 6.4 | 12.9 | 0.00 | 0.00 | 0.00 | 37 | 1008.0 |
| 20260505001717 | 23 | 346 | 4.8 | 12.9 | 0.00 | 0.00 | 0.00 | 34 | 1008.0 |
| 20260505001003 | 24 | 332 | 4.8 | 12.9 | 0.00 | 0.00 | 0.00 | 34 | 1008.1 |
| 20260505000503 | 24 | 326 | 4.8 | 12.9 | 0.00 | 0.00 | 0.00 | 37 | 1008.0 |
| 20260505000004 | 24 | 272 | 4.8 | 16.1 | 0.00 | 0.00 | 0.00 | 36 | 1008.1 |
| 20260504235503 | 24 | 236 | 4.8 | 19.3 | 0.00 | 0.00 | 0.00 | 37 | 1008.0 |
| 20260504235003 | 24 | 239 | 4.8 | 19.3 | 0.00 | 0.00 | 0.00 | 35 | 1008.1 |
| 20260504234504 | 24 | 236 | 4.8 | 17.7 | 0.00 | 0.00 | 0.00 | 37 | 1008.1 |
| 20260504234003 | 24 | 234 | 3.2 | 17.7 | 0.00 | 0.00 | 0.00 | 36 | 1008.1 |
| 20260504233503 | 24 | 247 | 3.2 | 12.9 | 0.00 | 0.00 | 0.00 | 37 | 1008.1 |
| 20260504233003 | 24 | 283 | 4.8 | 11.3 | 0.00 | 0.00 | 0.00 | 37 | 1008.1 |
| 20260504232503 | 24 | 264 | 6.4 | 12.9 | 0.00 | 0.00 | 0.00 | 38 | 1008.1 |
| 20260504232003 | 24 | 244 | 6.4 | 16.1 | 0.00 | 0.00 | 0.00 | 36 | 1008.1 |
| 20260504231503 | 24 | 232 | 6.4 | 17.7 | 0.00 | 0.00 | 0.00 | 37 | 1008.0 |
| 20260504231218 | 24 | 231 | 6.4 | 19.3 | 0.00 | 0.00 | 0.00 | 35 | 1008.1 |
| 20260504230503 | 24 | 239 | 4.8 | 19.3 | 0.00 | 0.00 | 0.00 | 37 | 1008.2 |
| 20260504230003 | 24 | 258 | 6.4 | 11.3 | 0.00 | 0.00 | 0.00 | 36 | 1008.2 |
| 20260504225503 | 24 | 241 | 6.4 | 16.1 | 0.00 | 0.00 | 0.00 | 37 | 1008.3 |
| 20260504225003 | 24 | 237 | 4.8 | 17.7 | 0.00 | 0.00 | 0.00 | 36 | 1008.2 |
| 20260504224503 | 24 | 240 | 4.8 | 17.7 | 0.00 | 0.00 | 0.00 | 38 | 1008.3 |
| 20260504224003 | 24 | 249 | 4.8 | 14.5 | 0.00 | 0.00 | 0.00 | 37 | 1008.4 |
| 20260504223503 | 24 | 246 | 4.8 | 20.9 | 0.00 | 0.00 | 0.00 | 40 | 1008.4 |
| 20260504223003 | 23 | 236 | 4.8 | 20.9 | 0.00 | 0.00 | 0.00 | 38 | 1008.5 |
| 20260504222503 | 23 | 245 | 6.4 | 19.3 | 0.00 | 0.00 | 0.00 | 37 | 1008.5 |
| 20260504222003 | 23 | 231 | 6.4 | 16.1 | 0.00 | 0.00 | 0.00 | 40 | 1008.5 |
| 20260504221503 | 23 | 226 | 4.8 | 16.1 | 0.00 | 0.00 | 0.00 | 38 | 1008.5 |
| 20260504221003 | 23 | 233 | 3.2 | 16.1 | 0.00 | 0.00 | 0.00 | 38 | 1008.6 |
| 20260504220503 | 23 | 269 | 4.8 | 19.3 | 0.00 | 0.00 | 0.00 | 39 | 1008.6 |
| 20260504220003 | 23 | 266 | 6.4 | 19.3 | 0.00 | 0.00 | 0.00 | 37 | 1008.7 |
| 20260504215503 | 23 | 237 | 6.4 | 19.3 | 0.00 | 0.00 | 0.00 | 38 | 1008.7 |
| 20260504215217 | 23 | 234 | 4.8 | 19.3 | 0.00 | 0.00 | 0.00 | 36 | 1008.6 |
| 20260504214504 | 24 | 282 | 4.8 | 12.9 | 0.00 | 0.00 | 0.00 | 39 | 1008.7 |
| 20260504214003 | 24 | 248 | 4.8 | 14.5 | 0.00 | 0.00 | 0.00 | 39 | 1008.8 |
| 20260504213503 | 24 | 237 | 4.8 | 16.1 | 0.00 | 0.00 | 0.00 | 37 | 1008.8 |
| 20260504213003 | 23 | 245 | 3.2 | 16.1 | 0.00 | 0.00 | 0.00 | 39 | 1008.8 |
| 20260504212503 | 24 | 246 | 3.2 | 9.7 | 0.00 | 0.00 | 0.00 | 38 | 1008.8 |
| 20260504212217 | 24 | 248 | 4.8 | 16.1 | 0.00 | 0.00 | 0.00 | 38 | 1008.8 |
| 20260504211503 | 23 | 251 | 4.8 | 16.1 | 0.00 | 0.00 | 0.00 | 43 | 1008.8 |
| 20260504211003 | 23 | 251 | 4.8 | 14.5 | 0.00 | 0.00 | 0.00 | 39 | 1008.9 |
| 20260504210503 | 23 | 248 | 4.8 | 20.9 | 0.00 | 0.00 | 0.00 | 41 | 1008.9 |
| 20260504210004 | 23 | 253 | 4.8 | 20.9 | 0.00 | 0.00 | 0.00 | 40 | 1009.0 |
| 20260504205503 | 23 | 259 | 4.8 | 12.9 | 0.00 | 0.00 | 0.00 | 41 | 1009.0 |
| 20260504205003 | 23 | 242 | 4.8 | 17.7 | 0.00 | 0.00 | 0.00 | 40 | 1009.1 |
| 20260504204503 | 23 | 241 | 3.2 | 20.9 | 0.00 | 0.00 | 0.00 | 39 | 1009.1 |
| 20260504204003 | 23 | 264 | 4.8 | 20.9 | 0.00 | 0.00 | 0.00 | 38 | 1009.1 |
| 20260504203503 | 23 | 251 | 4.8 | 14.5 | 0.00 | 0.00 | 0.00 | 37 | 1009.1 |
| 20260504203217 | 23 | 243 | 4.8 | 12.9 | 0.00 | 0.00 | 0.00 | 40 | 1009.1 |
| 20260504202503 | 23 | 235 | 6.4 | 12.9 | 0.00 | 0.00 | 0.00 | 39 | 1009.1 |
| 20260504202003 | 23 | 236 | 6.4 | 19.3 | 0.00 | 0.00 | 0.00 | 40 | 1009.1 |
| 20260504201503 | 22 | 239 | 4.8 | 19.3 | 0.00 | 0.00 | 0.00 | 40 | 1009.2 |
| 20260504201003 | 23 | 237 | 6.4 | 16.1 | 0.00 | 0.00 | 0.00 | 40 | 1009.2 |
| 20260504200503 | 23 | 232 | 6.4 | 16.1 | 0.00 | 0.00 | 0.00 | 38 | 1009.3 |
| 20260504200003 | 23 | 225 | 6.4 | 16.1 | 0.00 | 0.00 | 0.00 | 41 | 1009.2 |
| 20260504195718 | 23 | 227 | 6.4 | 16.1 | 0.00 | 0.00 | 0.00 | 39 | 1009.3 |
| 20260504195003 | 22 | 238 | 6.4 | 19.3 | 0.00 | 0.00 | 0.00 | 42 | 1009.3 |
| 20260504194503 | 22 | 236 | 6.4 | 19.3 | 0.00 | 0.00 | 0.00 | 41 | 1009.2 |
| 20260504194003 | 22 | 232 | 8.0 | 16.1 | 0.00 | 0.00 | 0.00 | 44 | 1009.3 |
| 20260504193503 | 22 | 227 | 9.7 | 20.9 | 0.00 | 0.00 | 0.00 | 41 | 1009.3 |
| 20260504193216 | 22 | 223 | 9.7 | 20.9 | 0.00 | 0.00 | 0.00 | 44 | 1009.3 |
| 20260504192717 | 22 | 228 | 8.0 | 19.3 | 0.00 | 0.00 | 0.00 | 42 | 1009.3 |
| 20260504192003 | 22 | 232 | 8.0 | 16.1 | 0.00 | 0.00 | 0.00 | 43 | 1009.3 |
| 20260504191503 | 22 | 235 | 8.0 | 19.3 | 0.00 | 0.00 | 0.00 | 42 | 1009.4 |
| 20260504191216 | 22 | 235 | 8.0 | 19.3 | 0.00 | 0.00 | 0.00 | 43 | 1009.4 |
| 20260504190504 | 22 | 238 | 8.0 | 16.1 | 0.00 | 0.00 | 0.00 | 45 | 1009.3 |
| 20260504190003 | 21 | 235 | 8.0 | 19.3 | 0.00 | 0.00 | 0.00 | 40 | 1009.4 |
| 20260504185503 | 21 | 229 | 8.0 | 19.3 | 0.00 | 0.00 | 0.00 | 42 | 1009.4 |
| 20260504185003 | 21 | 227 | 8.0 | 17.7 | 0.00 | 0.00 | 0.00 | 41 | 1009.4 |
| 20260504184503 | 21 | 226 | 8.0 | 16.1 | 0.00 | 0.00 | 0.00 | 42 | 1009.5 |
| 20260504184003 | 21 | 225 | 8.0 | 16.1 | 0.00 | 0.00 | 0.00 | 42 | 1009.5 |
| 20260504183503 | 21 | 225 | 6.4 | 20.9 | 0.00 | 0.00 | 0.00 | 42 | 1009.5 |
| 20260504183008 | 21 | 230 | 6.4 | 20.9 | 0.00 | 0.00 | 0.00 | 42 | 1009.5 |
| 20260504182503 | 21 | 238 | 8.0 | 12.9 | 0.00 | 0.00 | 0.00 | 42 | 1009.5 |
| 20260504182003 | 21 | 234 | 8.0 | 20.9 | 0.00 | 0.00 | 0.00 | 44 | 1009.5 |
| 20260504181717 | 21 | 235 | 8.0 | 20.9 | 0.00 | 0.00 | 0.00 | 42 | 1009.5 |
| 20260504181003 | 21 | 233 | 4.8 | 17.7 | 0.00 | 0.00 | 0.00 | 43 | 1009.5 |
| 20260504180717 | 21 | 231 | 4.8 | 12.9 | 0.00 | 0.00 | 0.00 | 44 | 1009.5 |
| 20260504180004 | 21 | 232 | 4.8 | 11.3 | 0.00 | 0.00 | 0.00 | 46 | 1009.4 |
| 20260504175503 | 21 | 237 | 4.8 | 14.5 | 0.00 | 0.00 | 0.00 | 46 | 1009.4 |
| 20260504175003 | 20 | 239 | 4.8 | 14.5 | 0.00 | 0.00 | 0.00 | 46 | 1009.4 |
| 20260504174717 | 21 | 232 | 4.8 | 14.5 | 0.00 | 0.00 | 0.00 | 45 | 1009.5 |
| 20260504174003 | 20 | 227 | 4.8 | 14.5 | 0.00 | 0.00 | 0.00 | 45 | 1009.5 |
| 20260504173503 | 21 | 234 | 4.8 | 14.5 | 0.00 | 0.00 | 0.00 | 46 | 1009.4 |
| 20260504173003 | 21 | 236 | 4.8 | 12.9 | 0.00 | 0.00 | 0.00 | 46 | 1009.5 |
| 20260504172503 | 20 | 234 | 4.8 | 11.3 | 0.00 | 0.00 | 0.00 | 45 | 1009.5 |
| 20260504172004 | 20 | 227 | 3.2 | 11.3 | 0.00 | 0.00 | 0.00 | 45 | 1009.5 |
| 20260504171504 | 20 | 226 | 3.2 | 11.3 | 0.00 | 0.00 | 0.00 | 44 | 1009.6 |
| 20260504171218 | 21 | 228 | 1.6 | 11.3 | 0.00 | 0.00 | 0.00 | 44 | 1009.5 |
| 20260504170717 | 21 | 238 | 1.6 | 11.3 | 0.00 | 0.00 | 0.00 | 46 | 1009.6 |